Find Starlink 32005

NORAD ID: 60034 Int'l Des: 2024-111 Owner: SPXS Country: US Constellation: starlink operational
LEOCIRCULAR

当前视图

正在加载3D地球...

About Starlink 32005

Starlink 32005 (NORAD 60034) is a starlink constellation satellite (v2 mini) launched Jun 8, 2024 by SPXS of US. It operates in LEO, CIRCULAR orbit with a mass of 730.00 kg.

关于 Starlink 32005

正在加载描述...

即将过境

Passes for default location (London). Set your location on the main map for personalized predictions.

高度历史

Loading altitude history...

两行轨道根数

1 60034U 24111U 26171.42454051 .00007159 00000-0 25402-3 0 9992
2 60034 53.1612 318.3617 0001063 73.1147 286.9970 15.30146831114666
Epoch: Jun 20, 2026 • Age: 30 hours

当前状态

高度 477.0 km
速度 7.63 km/s
星下点 -5.62°S, 159.4°E
发射日期 Jun 8, 2024
运行时间 2 years
类型 internet

技术详情

分类 Payload
质量 730.00 kg
干质量 700.00 kg
总质量 730.00 kg
长度 0.30 m
直径 4.10 m
跨度 29.00 m
形状 Box + pan
制造商 SPXS
平台类型 Starlink V2M
阶段状态 In Orbit
所有者/国家 SPXS/US

Most Searched